TimeCDT,TemperatureF,Dew PointF,Humidity,Sea Level PressureIn,VisibilityMPH,Wind Direction,Wind SpeedMPH,Gust SpeedMPH,PrecipitationIn,Events,Conditions,WindDirDegrees,DateUTC
12:15 AM,47.8,45.7,92,30.11,7.0,NE,12.7,-,N/A,Rain,Light Rain,40,2013-05-03 05:15:00
12:35 AM,47.8,45.5,92,30.11,7.0,NE,15.0,-,N/A,Rain,Light Rain,40,2013-05-03 05:35:00
12:55 AM,47.7,45.5,92,30.11,7.0,NE,12.7,-,0.01,,Light Drizzle,40,2013-05-03 05:55:00
1:15 AM,47.5,45.1,92,30.11,7.0,NE,10.4,-,N/A,,Light Drizzle,50,2013-05-03 06:15:00
1:35 AM,47.3,44.6,90,30.09,10.0,NE,11.5,-,N/A,Rain,Light Rain,50,2013-05-03 06:35:00
1:55 AM,46.4,43.7,90,30.09,10.0,NE,15.0,-,N/A,,Light Drizzle,50,2013-05-03 06:55:00
2:15 AM,46.4,43.5,90,30.08,10.0,NE,15.0,-,N/A,Rain,Light Rain,50,2013-05-03 07:15:00
2:35 AM,45.7,43.3,92,30.08,10.0,NNE,15.0,-,N/A,,Drizzle,20,2013-05-03 07:35:00
2:55 AM,45.5,43.3,92,30.06,7.0,NNE,12.7,-,N/A,,Light Drizzle,20,2013-05-03 07:55:00
3:15 AM,45.5,43.3,92,30.07,7.0,NNE,10.4,17.3,N/A,,Overcast,20,2013-05-03 08:15:00
3:35 AM,45.1,43.0,92,30.07,10.0,ENE,15.0,18.4,N/A,,Overcast,60,2013-05-03 08:35:00
3:55 AM,44.8,42.1,90,30.07,7.0,NE,15.0,-,N/A,,Light Drizzle,40,2013-05-03 08:55:00
4:15 AM,44.6,41.9,90,30.06,10.0,NE,18.4,-,N/A,,Light Drizzle,40,2013-05-03 09:15:00
4:35 AM,43.7,41.0,90,30.06,10.0,NE,17.3,-,N/A,Rain,Light Rain,50,2013-05-03 09:35:00
4:55 AM,43.7,41.0,90,30.05,10.0,NE,16.1,-,N/A,,Overcast,40,2013-05-03 09:55:00
5:15 AM,43.0,40.3,90,30.05,10.0,NE,19.6,-,N/A,Rain,Light Rain,50,2013-05-03 10:15:00
5:35 AM,42.8,40.1,90,30.05,10.0,ENE,15.0,-,0.01,,Drizzle,60,2013-05-03 10:35:00
5:55 AM,42.8,39.9,90,30.05,10.0,NE,16.1,19.6,0.01,Rain,Light Rain,50,2013-05-03 10:55:00
6:15 AM,42.4,39.7,90,30.05,10.0,ENE,12.7,-,N/A,,Light Drizzle,60,2013-05-03 11:15:00
6:35 AM,42.6,39.9,90,30.05,10.0,ENE,11.5,-,N/A,,Light Drizzle,60,2013-05-03 11:35:00
6:55 AM,42.6,40.1,91,30.05,7.0,NE,12.7,-,0.01,,Light Drizzle,50,2013-05-03 11:55:00
7:15 AM,42.8,40.3,91,30.04,7.0,NE,12.7,-,N/A,,Light Drizzle,50,2013-05-03 12:15:00
7:35 AM,42.8,40.3,91,30.03,7.0,NE,15.0,-,0.01,,Drizzle,40,2013-05-03 12:35:00
7:55 AM,42.8,40.3,91,30.02,7.0,NE,17.3,-,0.02,Rain,Light Rain,50,2013-05-03 12:55:00
8:15 AM,42.8,40.6,92,30.03,7.0,ENE,11.5,-,N/A,Rain,Light Rain,60,2013-05-03 13:15:00
8:35 AM,43.0,41.0,93,30.02,7.0,ENE,13.8,20.7,0.01,Rain,Rain,60,2013-05-03 13:35:00
8:55 AM,43.5,41.2,91,30.01,5.0,NE,13.8,-,0.01,,Light Drizzle,50,2013-05-03 13:55:00
9:15 AM,44.1,41.9,92,30.01,5.0,ENE,16.1,20.7,0.01,,Light Drizzle,70,2013-05-03 14:15:00
9:35 AM,44.6,42.3,91,30.00,5.0,ENE,15.0,-,0.01,,Light Drizzle,60,2013-05-03 14:35:00
9:55 AM,44.6,42.4,92,29.99,4.0,ENE,19.6,-,0.01,,Drizzle,70,2013-05-03 14:55:00
10:15 AM,44.8,42.8,93,29.99,4.0,ENE,17.3,-,0.01,Rain,Light Rain,70,2013-05-03 15:15:00
10:35 AM,45.3,43.3,93,29.99,4.0,East,15.0,20.7,0.02,,Light Drizzle,80,2013-05-03 15:35:00
10:55 AM,45.7,43.7,93,29.99,4.0,East,13.8,-,0.04,Rain,Light Rain,80,2013-05-03 15:55:00
11:15 AM,46.6,44.8,93,29.99,4.0,East,15.0,-,N/A,,Light Drizzle,80,2013-05-03 16:15:00
11:35 AM,47.3,45.3,93,29.98,4.0,East,17.3,20.7,N/A,Rain,Light Rain,80,2013-05-03 16:35:00
11:55 AM,48.0,46.0,93,29.98,4.0,East,13.8,-,N/A,,Light Drizzle,80,2013-05-03 16:55:00
12:15 PM,48.4,46.4,93,29.97,4.0,East,17.3,-,0.01,Rain,Rain,80,2013-05-03 17:15:00
12:35 PM,49.1,47.3,93,29.95,4.0,East,17.3,-,0.02,,Light Drizzle,80,2013-05-03 17:35:00
12:55 PM,50.7,48.9,94,29.95,4.0,East,18.4,-,0.02,,Overcast,80,2013-05-03 17:55:00
1:15 PM,50.9,49.1,94,29.95,4.0,East,12.7,19.6,N/A,,Overcast,90,2013-05-03 18:15:00
1:35 PM,51.8,49.8,93,29.95,3.0,East,13.8,-,N/A,,Light Drizzle,80,2013-05-03 18:35:00
1:55 PM,52.7,50.5,92,29.94,4.0,East,13.8,-,N/A,,Overcast,90,2013-05-03 18:55:00
2:15 PM,53.6,51.1,91,29.93,3.0,East,16.1,-,N/A,,Overcast,80,2013-05-03 19:15:00
2:35 PM,54.7,52.2,91,29.93,3.0,East,11.5,-,N/A,,Overcast,90,2013-05-03 19:35:00
2:55 PM,54.7,52.3,92,29.92,2.5,ENE,16.1,-,N/A,,Overcast,70,2013-05-03 19:55:00
3:15 PM,55.6,53.2,92,29.92,2.5,East,12.7,-,N/A,Rain,Light Rain,80,2013-05-03 20:15:00
3:35 PM,56.3,53.6,91,29.91,3.0,ENE,12.7,-,N/A,,Overcast,70,2013-05-03 20:35:00
3:55 PM,56.3,53.8,91,29.90,3.0,East,13.8,18.4,N/A,,Overcast,80,2013-05-03 20:55:00
4:15 PM,56.7,54.0,91,29.90,4.0,ENE,11.5,-,N/A,,Overcast,70,2013-05-03 21:15:00
4:35 PM,56.5,53.8,91,29.91,4.0,East,16.1,-,N/A,,Overcast,80,2013-05-03 21:35:00
4:55 PM,57.4,54.5,90,29.90,5.0,East,13.8,-,N/A,,Overcast,80,2013-05-03 21:55:00
5:15 PM,57.4,54.1,89,29.90,5.0,East,16.1,-,N/A,,Scattered Clouds,80,2013-05-03 22:15:00
5:35 PM,57.4,54.0,88,29.90,5.0,East,15.0,-,N/A,,Scattered Clouds,80,2013-05-03 22:35:00
5:55 PM,57.0,53.6,88,29.89,7.0,ENE,16.1,-,N/A,,Mostly Cloudy,60,2013-05-03 22:55:00
6:15 PM,56.7,53.2,88,29.88,7.0,ENE,12.7,-,N/A,,Mostly Cloudy,60,2013-05-03 23:15:00
6:35 PM,56.5,53.1,88,29.88,7.0,ENE,15.0,-,N/A,,Scattered Clouds,70,2013-05-03 23:35:00
6:55 PM,56.5,53.1,88,29.88,7.0,ENE,16.1,-,N/A,,Scattered Clouds,60,2013-05-03 23:55:00
7:15 PM,56.3,52.9,88,29.88,7.0,ENE,15.0,20.7,N/A,,Scattered Clouds,70,2013-05-04 00:15:00
7:35 PM,55.6,52.2,88,29.88,7.0,ENE,15.0,20.7,N/A,,Overcast,60,2013-05-04 00:35:00
7:55 PM,55.4,52.3,89,29.88,7.0,ENE,18.4,23.0,N/A,,Overcast,70,2013-05-04 00:55:00
8:15 PM,54.7,51.4,89,29.89,7.0,ENE,17.3,-,N/A,,Mostly Cloudy,60,2013-05-04 01:15:00
8:35 PM,54.0,50.5,88,29.89,7.0,ENE,16.1,23.0,N/A,,Scattered Clouds,70,2013-05-04 01:35:00
8:55 PM,53.2,50.0,89,29.89,7.0,ENE,19.6,-,N/A,,Scattered Clouds,70,2013-05-04 01:55:00
9:15 PM,52.9,49.6,89,29.89,7.0,ENE,18.4,-,N/A,,Mostly Cloudy,70,2013-05-04 02:15:00
9:35 PM,52.2,49.1,89,29.90,7.0,ENE,17.3,-,N/A,,Overcast,70,2013-05-04 02:35:00
9:55 PM,52.2,49.3,90,29.90,5.0,ENE,17.3,21.9,N/A,,Scattered Clouds,70,2013-05-04 02:55:00
10:15 PM,51.8,48.6,89,29.90,7.0,ENE,17.3,23.0,N/A,,Scattered Clouds,70,2013-05-04 03:15:00
10:35 PM,51.3,48.4,90,29.90,5.0,ENE,16.1,-,N/A,,Clear,70,2013-05-04 03:35:00
10:55 PM,51.3,48.4,90,29.89,7.0,ENE,17.3,-,N/A,,Clear,70,2013-05-04 03:55:00
11:15 PM,51.3,48.4,90,29.89,7.0,ENE,19.6,-,N/A,,Clear,70,2013-05-04 04:15:00
11:35 PM,51.6,48.6,89,29.89,7.0,East,20.7,-,N/A,,Clear,80,2013-05-04 04:35:00
11:55 PM,51.8,48.6,89,29.92,7.0,ESE,13.8,-,N/A,,Mostly Cloudy,110,2013-05-04 04:55:00